Location: B?ezina
(49.8085°N, 13.6013°E)
Time: 21:28:49
(UTC+00:00)

Sich 1 - Pass Details

Date: 19 May 2025
Orbit: 574 x 603 km, 82.5° (Epoch: 15 June)

Event Time Altitude Azimuth Distance (km) Brightness Sun altitude
Rises 22:31:09 0° 347° (NNW) 2,837 8.1 -19.9°
Reaches altitude 10° 22:33:23 10° 345° (NNW) 1,926 6.8 -19.9°
Maximum altitude 22:37:35 65° 264° (W) 646 3.1 -20.0°
Enters shadow 22:38:30 49° 207° (SSW) 753 3.1 -20.0°
